Weather History for Juliana Airport, St. Martin

Change the Weather History Date:

Monday, September 3, 2012

  Actual Average Record
Temperature  
Mean Temperature 84 °F -  
Max Temperature 86 °F 87 °F 91 °F (2000)
Min Temperature 82 °F 78 °F 77 °F (2002)
Cooling Degree Days 19    
Growing Degree Days 34 (Base 50)    
Moisture  
Dew Point 76 °F    
Average Humidity 77    
Maximum Humidity 84    
Minimum Humidity 67    
Precipitation  
Precipitation 0.00 in 0.17 in - ()
Sea Level Pressure  
Sea Level Pressure 29.99 in    
Wind  
Wind Speed 7 mph ()    
Max Wind Speed 10 mph    
Max Gust Speed -    
Visibility 7.9 miles    
Events      
Averages and records for this station are not official NWS values.
T = Trace of Precipitation, MM = Missing Value Source: Averaged Metar Reports

Daily Weather History Graph

Daily Weather History Graph

Search for Another Location

Airport:

Trip Planner

Search our weather history database for the weather conditions in past years. The results will help you decide how hot, cold, wet, or windy it might be!

Date:

Astronomy

Sep. 03, 2012 Rise Set
Actual Time 5:58 AM AST 6:24 PM AST
Civil Twilight 5:36 AM AST 6:46 PM AST
Nautical Twilight 5:10 AM AST 7:12 PM AST
Astronomical Twilight 4:44 AM AST 7:37 PM AST
Moon 8:21 PM AST (9/3) 8:25 AM AST (9/3)
Length of Visible Light 13h 09m
Length of Day
12h 25m
Waning Gibbous, 90% of the Moon is Illuminated
Sep 3
Waning Gibbous
Sep 8
Last Quarter
Sep 15
New
Sep 22
First Quarter
Sep 29
Full

Hourly Weather History & Observations

Time (AST) Temp. Heat Index Dew Point Humidity Pressure Visibility Wind Dir Wind Speed Gust Speed Precip Events Conditions
12:00 AM 82.4 °F 90.9 °F 77.0 °F 84% 29.98 in 6.2 mi WSW 6.9 mph - N/A   Partly Cloudy
1:00 AM 82.4 °F 90.9 °F 77.0 °F 84% 29.95 in 6.2 mi WSW 9.2 mph - N/A   Partly Cloudy
2:00 AM 83 °F - 76 °F 73% 29.96 in 19 mi WSW 9.2 mph - -   Scattered Clouds
2:00 AM 82.4 °F 89.5 °F 75.2 °F 79% 29.95 in 6.2 mi WSW 9.2 mph - N/A   Partly Cloudy
3:00 AM 82.4 °F 89.5 °F 75.2 °F 79% 29.92 in 6.2 mi WSW 5.8 mph - N/A   Partly Cloudy
4:00 AM 82.4 °F 90.9 °F 77.0 °F 84% 29.95 in 6.2 mi WSW 8.1 mph - N/A   Scattered Clouds
5:00 AM 82 °F - 76 °F 78% 29.97 in 19 mi SW 9.2 mph - -   Scattered Clouds
5:00 AM 82.4 °F 89.5 °F 75.2 °F 79% 29.95 in 6.2 mi SW 9.2 mph - N/A   Partly Cloudy
6:00 AM 82.4 °F 89.5 °F 75.2 °F 79% 29.98 in 6.2 mi SW 5.8 mph - N/A   Partly Cloudy
7:00 AM 82.4 °F 89.5 °F 75.2 °F 79% 29.98 in 6.2 mi SW 10.4 mph - N/A   Partly Cloudy
8:00 AM 84 °F - 75 °F 69% 30.03 in 31 mi WSW 6.9 mph - -   Scattered Clouds
8:00 AM 84.2 °F 92.3 °F 75.2 °F 74% 30.01 in 6.2 mi SW 5.8 mph - N/A   Partly Cloudy
9:00 AM 84.2 °F 92.3 °F 75.2 °F 74% 30.01 in 6.2 mi SW 9.2 mph - N/A   Partly Cloudy
10:00 AM 84.2 °F 94.1 °F 77.0 °F 79% 30.04 in 6.2 mi SW 8.1 mph - N/A   Scattered Clouds
11:00 AM 85 °F - 76 °F 68% 30.04 in 22 mi SW 8.1 mph - -   Mostly Cloudy
11:00 AM 84.2 °F 94.1 °F 77.0 °F 79% 30.04 in 6.2 mi SW 8.1 mph - N/A   Mostly Cloudy
12:00 PM 84.2 °F 94.1 °F 77.0 °F 79% 30.04 in 6.2 mi SW 6.9 mph - N/A   Scattered Clouds
2:00 PM 85 °F - 76 °F 67% 30.01 in 22 mi SW 5.8 mph - -  
2:00 PM 86.0 °F 95.1 °F 75.2 °F 70% 30.01 in 6.2 mi SW 5.8 mph - N/A   Partly Cloudy
3:00 PM 86.0 °F 95.1 °F 75.2 °F 70% 29.98 in 6.2 mi SW 4.6 mph - N/A   Partly Cloudy
4:00 PM 84.2 °F 92.3 °F 75.2 °F 74% 29.98 in 6.2 mi SW 5.8 mph - N/A   Partly Cloudy
5:00 PM 84 °F - 75 °F 68% 29.98 in 22 mi SW 6.9 mph - -   Scattered Clouds
5:00 PM 84.2 °F 92.3 °F 75.2 °F 74% 29.95 in 6.2 mi SW 6.9 mph - N/A   Partly Cloudy
6:00 PM 84.2 °F 92.3 °F 75.2 °F 74% 29.95 in 6.2 mi SW 8.1 mph - N/A   Partly Cloudy
7:00 PM 82.4 °F 90.9 °F 77.0 °F 84% 29.98 in 6.2 mi SW 5.8 mph - N/A   Partly Cloudy
8:00 PM 83 °F - 77 °F 77% 30.00 in 16 mi SW 4.6 mph - -  
8:00 PM 82.4 °F 90.9 °F 77.0 °F 84% 29.98 in 6.2 mi SW 4.6 mph - N/A   Partly Cloudy
9:00 PM 82.4 °F 90.9 °F 77.0 °F 84% 30.01 in 6.2 mi Variable 3.5 mph - N/A   Partly Cloudy
10:00 PM 82.4 °F 90.9 °F 77.0 °F 84% 30.04 in 6.2 mi Variable 3.5 mph - N/A   Partly Cloudy
11:00 PM 83 °F - 77 °F 79% 30.04 in 16 mi SW 3.5 mph - -   Overcast
11:00 PM 82.4 °F 90.9 °F 77.0 °F 84% 30.04 in 6.2 mi SW 3.5 mph - N/A   Scattered Clouds